[Date Prev][Date Next][Thread Prev][Thread Next] - [Date Index][Thread Index][Author Index]
2 Line ISS Keps 11-4
- Subject: [sarex] 2 Line ISS Keps 11-4
- From: "Dave Larsen PhD" <doc@xxxxxxxxxxx>
- Date: Thu, 4 Nov 2004 03:58:58 -0800
ISS
1 25544U 98067A 04309.29810185 .00031466 00000-0 25697-3 0 656
2 25544 51.6359 330.8249 0008318 314.5291 228.0090 15.70250081340327
----
Via the sarex mailing list at AMSAT.ORG courtesy of AMSAT-NA.
To unsubscribe, send "unsubscribe sarex" to Majordomo@amsat.org
AMSAT Home